Regional Weather Roundup
Issued by NWS Burlington, VT

Current Version | Previous Version | Text Only | Print | Product List | Glossary On
Versions: 1 2 3 4 5 6 7 8 9 10 11 12 13 14 15 16 17 18 19 20 21 22 23 24 25 26 27 28 29 30 31 32 33 34 35 36 37 38 39 40 41 42 43 44 45 46 47 48 49 50
000
ASUS41 KBTV 280510
RWRBTV
VERMONT REGIONAL WEATHER ROUNDUP
NATIONAL WEATHER SERVICE BURLINGTON VT
100 AM EDT THU AUG 28 2014

NOTE: "FAIR" INDICATES FEW OR NO CLOUDS BELOW 12,000 FEET WITH NO
SIGNIFICANT WEATHER AND/OR OBSTRUCTIONS TO VISIBILITY.

* THESE REPORTS ARE NOT UNDER NWS QUALITY CONTROL AND/OR DO NOT
  REPORT WEATHER SUCH AS PRECIPITATION AND FOG.

VTZ001>019-280600-
_____VERMONT_____


CITY           SKY/WX    TMP DP  RH WIND       PRES   REMARKS
BURLINGTON     PTCLDY    67  58  72 CALM      29.91F
MONTPELIER     MOCLDY    61  56  83 CALM      29.96F
MORRISVILLE    MOCLDY    60  56  86 CALM      29.94S
ST. JOHNSBURY*   N/A     62  59  90 MISG      29.89F
MIDDLEBURY*    MOCLDY    63  59  87 CALM      29.91F
RUTLAND*       PTCLDY    63  61  94 CALM      29.92S
SPRINGFIELD    MOCLDY    66  61  84 E5        29.90F
HIGHGATE*      CLOUDY    64  60  85 CALM      29.91F
NEWPORT*       FAIR      62  56  78 CALM      29.92F
BENNINGTON     PTCLDY    66  59  78 SW7       29.92S
SUTTON*          N/A     59 N/A N/A MISG        N/A

_____LAKE CHAMPLAIN_____


CITY           SKY/WX    TMP DP  RH WIND       PRES   REMARKS
COLCHESTER RF*   N/A     68  59  73 NW13        N/A
DIAMOND ISL*     N/A     70  57  64 W14         N/A

$$

NYZ007-026>031-035-052-083-280600-
_____NORTHERN NEW YORK_____


CITY           SKY/WX    TMP DP  RH WIND       PRES   REMARKS
PLATTSBURGH    CLEAR     64  58  80 W6        29.91F
SARANAC LAKE   PTCLDY    56  54  93 CALM      29.96F
MASSENA        CLOUDY    64  59  83 NW6       29.95F
OGDENSBURG*    CLOUDY    64  59  82 N5        29.95F
POTSDAM*       CLOUDY    63  61  94 W3        29.95F
WATERTOWN      CLOUDY    66  58  75 N5        29.96F
FT DRUM        MOCLDY    60  60  99 W1        29.97S
ALBANY         PTCLDY    67  57  70 W9        29.93R
GLENS FALLS    MOCLDY    65  60  84 CALM      29.92S

$$
NHZ002-005-011-280600-
_____NEW HAMPSHIRE_____


CITY           SKY/WX    TMP DP  RH WIND       PRES   REMARKS
LEBANON        MOCLDY    67  61  81 CALM      29.89F
KEENE          CLOUDY    70  59  68 CALM      29.89F
MT WASHINGTON  FOG       45  45 100 W33         N/A  VSB 1/8
PLYMOUTH       FAIR      66  62  88 W5        29.88S
WHITEFIELD     MOCLDY    61  57  87 CALM      29.91S

$$

_____REGIONAL QUEBEC LOCATIONS_____


CITY           SKY/WX    TMP DP  RH WIND       PRES   REMARKS
MONTREAL       MOCLDY    66  55  68 NW5       29.91F
QUEBEC CITY    MOCLDY    63  55  77 W6        29.86F
SHERBROOKE     CLOUDY    61  57  88 W3        29.90F

_____REGIONAL ONTARIO LOCATIONS_____


CITY           SKY/WX    TMP DP  RH WIND       PRES   REMARKS
OTTAWA         MOCLDY    63  55  77 NW8       29.96F

______KEY______
VSB  - VISIBILITY IN MILES
WCI  - WIND CHILL INDEX
HX   - HEAT INDEX
$$



USA.gov is the U.S. government's official web portal to all federal, state and local government web resources and services.